EW0890 Weather Reports


time (UTC)temp
F
wind
direction
speed
knots
gust
knots
rain 1hr
in
rain 24hr
in
rain mn
in
humidity
%
barometer
mb
20260903143504 85 260 2.6 5.2 0.00 0.00 0.00 74 1014.8
20260903143111 85 219 2.6 7.0 0.00 0.00 0.00 74 1014.7
20260903143006 85 282 2.6 7.0 0.00 0.00 0.00 75 1014.8
20260903142506 84 272 2.6 7.0 0.00 0.00 0.00 74 1014.7
20260903142002 84 285 2.6 6.1 0.00 0.00 0.00 74 1014.8
20260903141608 84 283 2.6 6.1 0.00 0.00 0.00 74 1014.7
20260903141515 84 329 2.6 6.1 0.00 0.00 0.00 74 1014.7
20260903141007 84 248 2.6 5.2 0.00 0.00 0.00 75 1014.8
20260903140508 83 247 1.7 7.8 0.00 0.00 0.00 75 1014.9
20260903140022 83 252 1.7 7.8 0.00 0.00 0.00 75 1014.9
20260903135507 83 302 2.6 6.1 0.00 0.00 0.00 76 1014.9
20260903135009 83 295 1.7 5.2 0.00 0.00 0.00 76 1014.8
20260903134610 82 266 1.7 4.3 0.00 0.00 0.00 77 1014.7
20260903134526 82 160 1.7 4.3 0.00 0.00 0.00 77 1014.9
20260903134011 82 227 1.7 4.3 0.00 0.00 0.00 77 1014.9
20260903133518 82 285 1.7 4.3 0.00 0.00 0.00 78 1015.0
20260903133112 81 264 1.7 4.3 0.00 0.00 0.00 79 1014.9
20260903133031 81 257 1.7 4.3 0.00 0.00 0.00 79 1015.0
20260903132503 81 243 1.7 3.5 0.00 0.00 0.00 79 1015.1
20260903132003 81 254 1.7 3.5 0.00 0.00 0.00 79 1015.1
20260903131602 81 276 0.9 3.5 0.00 0.00 0.00 80 1014.9
20260903131510 80 269 0.9 3.5 0.00 0.00 0.00 80 1015.0
20260903131004 80 267 0.9 3.5 0.00 0.00 0.00 81 1014.9
20260903130504 80 287 0.9 4.3 0.00 0.00 0.00 81 1015.1
20260903130130 80 272 1.7 4.3 0.00 0.00 0.00 81 1015.0
20260903130015 79 327 1.7 4.3 0.00 0.00 0.00 81 1015.2
20260903125508 79 303 0.9 4.3 0.00 0.00 0.00 81 1015.1
20260903125008 79 342 1.7 4.3 0.00 0.00 0.00 81 1015.1
20260903124607 79 302 0.9 1.7 0.00 0.00 0.00 82 1015.0
20260903124520 79 266 0.9 1.7 0.00 0.00 0.00 82 1015.1
20260903124009 78 223 0.0 1.7 0.00 0.00 0.00 83 1015.2
20260903123512 78 242 0.0 1.7 0.00 0.00 0.00 83 1015.2
20260903123102 78 266 0.0 1.7 0.00 0.00 0.00 84 1015.2
20260903123034 78 243 0.0 1.7 0.00 0.00 0.00 84 1015.2
20260903122512 77 158 0.9 1.7 0.00 0.00 0.00 85 1015.2
20260903122019 77 155 0.0 1.7 0.00 0.00 0.00 86 1015.1
20260903121602 76 0 0.0 0.9 0.00 0.00 0.00 86 1015.0
20260903121530 76 228 0.0 0.9 0.00 0.00 0.00 86 1015.2
20260903121003 76 215 0.0 1.7 0.00 0.00 0.00 87 1015.1
20260903120504 75 255 0.0 1.7 0.00 0.00 0.00 88 1015.1
20260903120113 75 262 0.0 0.9 0.00 0.00 0.00 88 1015.2
20260903120013 75 274 0.0 0.9 0.00 0.00 0.00 88 1015.0
20260903115504 74 132 0.0 0.9 0.00 0.00 0.00 88 1015.1
20260903115003 74 113 0.0 1.7 0.00 0.00 0.00 88 1015.1
20260903114558 74 86 0.0 1.7 0.00 0.00 0.00 88 1015.1
20260903114516 74 347 0.0 1.7 0.00 0.00 0.00 88 1015.0
20260903114008 74 277 0.0 0.0 0.00 0.00 0.00 88 1015.0
20260903113509 74 247 0.0 0.9 0.00 0.00 0.00 88 1014.9
20260903113056 74 0 0.0 1.7 0.00 0.00 0.00 88 1014.9
20260903113024 74 247 0.0 1.7 0.00 0.00 0.00 88 1014.9
20260903112514 74 231 0.0 1.7 0.00 0.00 0.00 88 1014.9
20260903112018 74 240 0.0 1.7 0.00 0.00 0.00 87 1014.8
20260903111602 74 192 0.0 2.6 0.00 0.00 0.00 87 1014.9
20260903111532 74 262 0.9 2.6 0.00 0.00 0.00 87 1014.8
20260903111014 74 300 0.9 2.6 0.00 0.00 0.00 87 1014.8
20260903110515 74 324 0.0 1.7 0.00 0.00 0.00 88 1014.8
20260903110104 74 283 0.0 2.6 0.00 0.00 0.00 88 1014.9
20260903110032 74 283 0.0 1.7 0.00 0.00 0.00 88 1014.7
20260903105504 74 281 0.9 2.6 0.00 0.00 0.00 88 1014.9
20260903105007 74 281 0.9 2.6 0.00 0.00 0.00 88 1014.8
20260903104603 74 284 0.9 1.7 0.00 0.00 0.00 88 1014.9
20260903104514 74 254 0.9 1.7 0.00 0.00 0.00 88 1014.8
20260903104007 74 290 0.9 1.7 0.00 0.00 0.00 88 1014.8
20260903103509 74 290 0.9 1.7 0.00 0.00 0.00 87 1014.8
20260903103105 75 0 0.0 1.7 0.00 0.00 0.00 87 1014.8
20260903103020 75 310 0.0 1.7 0.00 0.00 0.00 87 1014.7
20260903102511 75 271 0.9 1.7 0.00 0.00 0.00 87 1014.7
20260903102015 75 284 0.0 2.6 0.00 0.00 0.00 87 1014.6
20260903101605 75 289 0.9 3.5 0.00 0.00 0.00 87 1014.7
20260903101524 75 269 0.9 3.5 0.00 0.00 0.00 87 1014.7
20260903101012 75 254 0.9 3.5 0.00 0.00 0.00 87 1014.7
20260903100514 75 266 0.9 1.7 0.00 0.00 0.00 87 1014.6
20260903100059 75 245 0.9 4.3 0.00 0.00 0.00 87 1014.7
20260903100033 75 11 0.9 4.3 0.00 0.00 0.00 87 1014.7
20260903095516 75 206 0.9 4.3 0.00 0.00 0.00 87 1014.7
20260903095015 74 281 0.9 2.6 0.00 0.00 0.00 87 1014.7
20260903094606 74 259 0.9 2.6 0.00 0.00 0.00 88 1014.8
20260903094539 74 278 0.9 2.6 0.00 0.00 0.00 88 1014.7
20260903094006 74 281 0.9 2.6 0.00 0.00 0.00 88 1014.7
20260903093508 74 244 0.9 2.6 0.00 0.00 0.00 88 1014.6
20260903093107 74 291 0.9 1.7 0.00 0.00 0.00 88 1014.7
20260903093038 74 245 0.9 1.7 0.00 0.00 0.00 88 1014.7
20260903092507 74 240 0.0 2.6 0.00 0.00 0.00 88 1014.7
20260903092009 74 302 0.9 2.6 0.00 0.00 0.00 88 1014.7
20260903091607 74 273 0.9 1.7 0.00 0.00 0.00 88 1014.7
20260903091524 74 285 0.9 1.7 0.00 0.00 0.00 88 1014.7
20260903091012 74 279 0.9 1.7 0.00 0.00 0.00 88 1014.7
20260903090512 74 290 0.0 2.6 0.00 0.00 0.00 88 1014.8
20260903090108 74 276 0.9 2.6 0.00 0.00 0.00 88 1014.8
20260903090030 74 255 0.9 2.6 0.00 0.00 0.00 88 1014.6
20260903085514 74 281 0.9 1.7 0.00 0.00 0.00 88 1014.7
20260903085014 74 297 0.9 1.7 0.00 0.00 0.00 88 1014.6
20260903084601 74 293 0.9 1.7 0.00 0.00 0.00 88 1014.7
20260903084533 74 295 0.9 1.7 0.00 0.00 0.00 88 1014.7
20260903084016 74 293 0.9 2.6 0.00 0.00 0.00 88 1014.6
20260903083516 75 281 0.9 2.6 0.00 0.00 0.00 88 1014.7
20260903083105 75 254 0.9 1.7 0.00 0.00 0.00 88 1014.8
20260903083032 75 291 0.9 1.7 0.00 0.00 0.00 88 1014.7
20260903082505 75 290 0.0 1.7 0.00 0.00 0.00 88 1014.7
20260903082007 75 311 0.9 1.7 0.00 0.00 0.00 87 1014.6
20260903081625 75 274 0.9 1.7 0.00 0.00 0.00 87 1014.9
20260903081520 75 271 0.9 1.7 0.00 0.00 0.00 87 1014.7
20260903081008 75 264 0.9 1.7 0.00 0.00 0.00 87 1014.7
20260903080510 75 275 0.9 1.7 0.00 0.00 0.00 87 1014.8
20260903080105 75 270 0.9 2.6 0.00 0.00 0.00 87 1014.9
20260903080027 75 288 0.9 2.6 0.00 0.00 0.00 87 1014.7
20260903075512 75 264 0.9 2.6 0.00 0.00 0.00 87 1014.7
20260903075013 75 245 0.9 2.6 0.00 0.00 0.00 87 1014.7
20260903074610 75 205 0.9 2.6 0.00 0.00 0.00 87 1014.9
20260903074530 75 270 0.9 2.6 0.00 0.00 0.00 87 1014.7
20260903074020 75 284 0.9 2.6 0.00 0.00 0.00 87 1014.7
20260903073519 75 277 0.9 2.6 0.00 0.00 0.00 86 1014.7
20260903073135 75 258 0.9 2.6 0.00 0.00 0.00 86 1014.8
20260903073033 75 259 0.9 2.6 0.00 0.00 0.00 86 1014.6
20260903072518 76 286 0.9 2.6 0.00 0.00 0.00 86 1014.6
20260903072021 76 304 0.9 2.6 0.00 0.00 0.00 86 1014.7
20260903071619 76 262 0.9 2.6 0.00 0.00 0.00 85 1014.9
20260903071534 76 272 0.9 2.6 0.00 0.00 0.00 85 1014.7
20260903071009 76 283 0.9 3.5 0.00 0.00 0.00 85 1014.7
20260903070510 76 278 0.9 3.5 0.00 0.00 0.00 85 1014.8
20260903070100 76 283 0.9 2.6 0.00 0.00 0.00 85 1014.9
20260903070028 76 285 0.9 2.6 0.00 0.00 0.00 85 1014.7
20260903065511 76 274 0.9 2.6 0.00 0.00 0.00 85 1014.7
20260903065012 76 240 0.9 2.6 0.00 0.00 0.00 85 1014.8
20260903064601 77 276 0.9 2.6 0.00 0.00 0.00 85 1014.9
20260903064527 77 311 0.9 2.6 0.00 0.00 0.00 85 1014.7
20260903064012 77 288 0.9 2.6 0.00 0.00 0.00 84 1014.7
20260903063512 77 278 0.9 2.6 0.00 0.00 0.00 84 1014.7
20260903063103 77 288 0.9 2.6 0.00 0.00 0.00 84 1015.0
20260903063032 77 281 0.9 2.6 0.00 0.00 0.00 84 1014.8
20260903062504 77 258 0.9 1.7 0.00 0.00 0.00 84 1014.8
20260903062007 77 278 0.9 1.7 0.00 0.00 0.00 84 1014.7
20260903061604 77 278 0.9 1.7 0.00 0.00 0.00 84 1014.9
20260903061512 77 233 0.9 1.7 0.00 0.00 0.00 84 1014.8
20260903061008 77 286 0.9 1.7 0.00 0.00 0.00 84 1014.8
20260903060508 77 271 0.0 1.7 0.00 0.00 0.00 84 1014.8
20260903060146 77 294 0.9 1.7 0.00 0.00 0.00 84 1014.8
20260903060018 77 297 0.9 1.7 0.00 0.00 0.00 84 1014.7
20260903055509 77 282 0.9 1.7 0.00 0.00 0.00 84 1014.7
20260903055013 77 277 0.9 1.7 0.00 0.00 0.00 84 1014.7
20260903054600 77 257 0.9 1.7 0.00 0.00 0.00 85 1014.8
20260903054532 77 264 0.9 1.7 0.00 0.00 0.00 85 1014.7
20260903054010 77 286 0.0 1.7 0.00 0.00 0.00 85 1014.6
20260903053512 77 290 0.9 1.7 0.00 0.00 0.00 86 1014.7
20260903053102 77 292 0.9 1.7 0.00 0.00 0.00 86 1014.7
20260903053031 77 280 0.9 1.7 0.00 0.00 0.00 87 1014.5
20260903052513 76 234 0.0 1.7 0.00 0.00 0.00 87 1014.5
20260903052017 76 288 0.0 0.0 0.00 0.00 0.00 88 1014.6
20260903051609 77 0 0.0 0.0 0.00 0.00 0.00 88 1014.7
20260903051534 77 271 0.0 0.0 0.00 0.00 0.00 88 1014.6
20260903051003 77 274 0.0 0.0 0.00 0.00 0.00 88 1014.4
20260903050503 77 255 0.0 1.7 0.00 0.00 0.00 87 1014.4
20260903050105 77 0 0.0 1.7 0.00 0.00 0.00 87 1014.7
20260903050016 77 279 0.0 1.7 0.00 0.00 0.00 87 1014.6
20260903045507 77 277 0.0 0.9 0.00 0.00 0.00 88 1014.5
20260903045006 77 280 0.0 0.9 0.00 0.00 0.00 87 1014.3
20260903044604 77 283 0.0 2.6 0.00 0.00 0.00 87 1014.6
20260903044521 77 282 0.0 1.7 0.00 0.00 0.00 87 1014.4
20260903044010 78 282 0.0 2.6 0.00 0.00 0.00 87 1014.4
20260903043514 78 281 0.9 2.6 0.00 0.00 0.00 87 1014.4
20260903043057 77 0 0.0 0.0 0.00 0.00 0.00 87 1014.5
20260903043029 77 274 0.0 0.0 0.00 0.00 0.00 87 1014.2
20260903042511 77 266 0.0 0.0 0.00 0.00 0.00 88 1014.2
20260903042013 77 259 0.0 0.9 0.00 0.00 0.00 88 1014.3
20260903041602 77 0 0.0 0.9 0.00 0.00 0.00 89 1014.4
20260903041532 77 244 0.0 0.9 0.00 0.00 0.00 89 1014.4
20260903041014 77 185 0.0 0.9 0.00 0.00 0.00 89 1014.3
20260903040517 77 262 0.0 0.9 0.00 0.00 0.00 90 1014.3
20260903040108 77 310 0.0 0.9 0.00 0.00 0.00 90 1014.4
20260903040011 77 319 0.0 0.9 0.00 0.00 0.00 90 1014.4
20260903035504 77 193 0.0 0.0 0.00 0.00 0.00 90 1014.4
20260903035005 77 192 0.0 0.0 0.00 0.00 0.00 90 1014.3
20260903034601 77 0 0.0 0.0 0.00 0.00 0.00 90 1014.4
20260903034517 77 195 0.0 0.0 0.00 0.00 0.00 90 1014.3
20260903034008 77 251 0.0 0.0 0.00 0.00 0.00 90 1014.3
20260903033507 77 207 0.0 0.9 0.00 0.00 0.00 90 1014.3
20260903033103 78 0 0.0 0.9 0.00 0.00 0.00 90 1014.4
20260903033031 78 196 0.0 0.9 0.00 0.00 0.00 90 1014.2
20260903032509 78 258 0.0 0.9 0.00 0.00 0.00 90 1014.4
20260903032014 78 259 0.0 0.9 0.00 0.00 0.00 90 1014.4
20260903031559 78 0 0.0 0.9 0.00 0.00 0.00 91 1014.4
20260903031532 78 260 0.0 0.9 0.00 0.00 0.00 91 1014.3
20260903031013 78 160 0.0 0.0 0.00 0.00 0.00 91 1014.2
20260903030517 78 233 0.0 0.0 0.00 0.00 0.00 92 1014.2
20260903030106 78 0 0.0 0.0 0.00 0.00 0.00 92 1014.4
20260903030032 78 233 0.0 0.0 0.00 0.00 0.00 92 1014.2
20260903025518 78 233 0.0 0.0 0.00 0.00 0.00 92 1014.2
20260903025016 78 233 0.0 0.0 0.00 0.00 0.00 92 1014.2
20260903024604 78 0 0.0 0.0 0.00 0.00 0.00 92 1014.4
20260903024509 78 233 0.0 0.0 0.00 0.00 0.00 92 1014.2
20260903024004 78 233 0.0 0.0 0.00 0.00 0.00 92 1014.3
20260903023507 78 257 0.0 0.0 0.00 0.00 0.00 92 1014.2
20260903023109 78 0 0.0 0.0 0.00 0.00 0.00 92 1014.5
20260903023021 78 257 0.0 0.0 0.00 0.00 0.00 92 1014.2
20260903022508 78 257 0.0 0.0 0.00 0.00 0.00 92 1014.2
20260903022011 78 257 0.0 0.0 0.00 0.00 0.00 92 1014.2
20260903021609 78 0 0.0 0.0 0.00 0.00 0.00 92 1014.5
20260903021534 78 257 0.0 0.0 0.00 0.00 0.00 92 1014.2
20260903021016 78 257 0.0 0.0 0.00 0.00 0.00 92 1014.2
20260903020513 79 257 0.0 0.0 0.00 0.00 0.00 92 1014.2
20260903020105 79 0 0.0 0.0 0.00 0.00 0.00 91 1014.4
20260903020031 79 257 0.0 0.0 0.00 0.00 0.00 91 1014.2
20260903015516 79 257 0.0 0.0 0.00 0.00 0.00 92 1014.2
20260903015014 79 257 0.0 0.0 0.00 0.00 0.00 92 1014.1
20260903014609 79 0 0.0 0.0 0.00 0.00 0.00 92 1014.4
20260903014535 79 257 0.0 0.0 0.00 0.00 0.00 92 1014.1
20260903014018 79 255 0.0 0.0 0.00 0.00 0.00 91 1014.1
20260903013519 80 255 0.0 0.0 0.00 0.00 0.00 91 1014.0
20260903013109 80 0 0.0 0.0 0.00 0.00 0.00 91 1014.2
20260903013014 80 255 0.0 0.0 0.00 0.00 0.00 91 1014.0
20260903012508 80 255 0.0 0.0 0.00 0.00 0.00 90 1014.0
20260903012009 80 255 0.0 0.0 0.00 0.00 0.00 90 1014.0
20260903011604 81 0 0.0 0.0 0.00 0.00 0.00 90 1014.1
20260903011521 81 255 0.0 0.0 0.00 0.00 0.00 90 1014.0
20260903011007 81 255 0.0 0.0 0.00 0.00 0.00 89 1013.9
20260903010513 81 255 0.0 0.0 0.00 0.00 0.00 89 1013.9
20260903010107 82 0 0.0 0.0 0.00 0.00 0.00 88 1014.1
20260903010026 82 255 0.0 0.0 0.00 0.00 0.00 88 1013.8
20260903005512 82 255 0.0 0.0 0.00 0.00 0.00 87 1013.9
20260903005012 83 255 0.0 0.0 0.00 0.00 0.00 86 1013.9
20260903004604 83 0 0.0 0.0 0.00 0.00 0.00 85 1014.0
20260903004536 83 255 0.0 0.0 0.00 0.00 0.00 85 1013.8
20260903004014 84 255 0.0 0.0 0.00 0.00 0.00 84 1013.8
20260903003517 85 255 0.0 0.0 0.00 0.00 0.00 83 1013.8
20260903003110 86 0 0.0 0.0 0.00 0.00 0.00 81 1014.0
20260903003032 86 255 0.0 0.0 0.00 0.00 0.00 81 1013.7
20260903002517 87 255 0.0 0.0 0.00 0.00 0.00 80 1013.8
20260903002018 88 255 0.0 0.0 0.00 0.00 0.00 77 1013.9
20260903001622 89 0 0.0 0.0 0.00 0.00 0.00 75 1014.1
20260903001517 89 255 0.0 0.0 0.00 0.00 0.00 75 1014.0
20260903001008 90 255 0.0 0.0 0.00 0.00 0.00 73 1013.9
20260903000510 91 255 0.0 0.0 0.00 0.00 0.00 71 1013.9
20260903000108 92 0 0.0 0.0 0.00 0.00 0.00 70 1014.1
20260903000021 92 255 0.0 0.0 0.00 0.00 0.00 70 1013.9
20260902235510 93 255 0.0 0.0 0.00 0.00 0.00 69 1013.9
20260902235016 93 255 0.0 0.0 0.00 0.00 0.00 68 1013.9
20260902234627 94 0 0.0 0.0 0.00 0.00 0.00 67 1014.1
20260902234527 94 255 0.0 0.0 0.00 0.00 0.00 67 1014.0
20260902234016 94 255 0.0 0.0 0.00 0.00 0.00 66 1013.9
20260902233516 94 255 0.0 0.0 0.00 0.00 0.00 66 1014.0
20260902233104 94 0 0.0 0.0 0.00 0.00 0.00 66 1014.2
20260902233032 94 255 0.0 0.0 0.00 0.00 0.00 66 1014.0
20260902232520 94 255 0.0 0.0 0.00 0.00 0.00 66 1014.0
20260902232017 94 255 0.0 0.0 0.00 0.00 0.00 66 1014.0
20260902231625 93 0 0.0 0.0 0.00 0.00 0.00 65 1014.2
20260902231532 93 255 0.0 0.0 0.00 0.00 0.00 65 1013.9
20260902231021 94 255 0.0 0.0 0.00 0.00 0.00 64 1014.0
20260902230518 94 255 0.0 0.0 0.00 0.00 0.00 64 1014.0
20260902230115 94 0 0.0 0.0 0.00 0.00 0.00 65 1014.3
20260902230016 94 267 0.0 0.0 0.00 0.00 0.00 65 1014.0
20260902225510 94 267 0.0 0.0 0.00 0.00 0.00 64 1014.0
20260902225012 93 272 0.0 0.0 0.00 0.00 0.00 65 1014.0
20260902224606 93 0 0.0 0.9 0.00 0.00 0.00 65 1014.3
20260902224526 93 271 0.0 0.9 0.00 0.00 0.00 65 1014.1
20260902224011 93 231 0.0 0.9 0.00 0.00 0.00 63 1014.1
20260902223512 93 262 0.0 2.6 0.00 0.00 0.00 63 1014.1
20260902223105 93 275 0.9 2.6 0.00 0.00 0.00 63 1014.4
20260902223030 93 274 0.9 2.6 0.00 0.00 0.00 62 1014.1
20260902222513 93 274 0.9 2.6 0.00 0.00 0.00 64 1014.2
20260902222016 93 265 0.9 2.6 0.00 0.00 0.00 63 1014.1
20260902221605 93 0 0.9 3.5 0.00 0.00 0.00 64 1014.3
20260902221531 93 285 0.9 3.5 0.00 0.00 0.00 64 1014.1
20260902221019 93 278 1.7 3.5 0.00 0.00 0.00 61 1014.1
20260902220519 93 285 1.7 3.5 0.00 0.00 0.00 62 1014.2
20260902220113 93 276 0.9 3.5 0.00 0.00 0.00 63 1014.5
20260902220036 93 251 0.9 3.5 0.00 0.00 0.00 63 1014.2
20260902215520 93 240 0.9 3.5 0.00 0.00 0.00 62 1014.1
20260902215016 93 213 0.9 4.3 0.00 0.00 0.00 62 1014.2
20260902214614 93 297 1.7 4.3 0.00 0.00 0.00 61 1014.5
20260902214528 93 281 2.6 4.3 0.00 0.00 0.00 61 1014.2
20260902214012 93 271 0.9 4.3 0.00 0.00 0.00 62 1014.2
20260902213511 93 278 1.7 4.3 0.00 0.00 0.00 62 1014.2
20260902213101 93 293 0.9 4.3 0.00 0.00 0.00 64 1014.5
20260902213030 93 259 0.9 3.5 0.00 0.00 0.00 64 1014.3
20260902212512 93 293 1.7 4.3 0.00 0.00 0.00 62 1014.3
20260902212013 93 302 1.7 4.3 0.00 0.00 0.00 62 1014.3
20260902211604 93 261 1.7 3.5 0.00 0.00 0.00 62 1014.6
20260902211530 93 282 1.7 3.5 0.00 0.00 0.00 61 1014.4
20260902211017 93 201 1.7 5.2 0.00 0.00 0.00 61 1014.4
20260902210514 93 306 2.6 5.2 0.00 0.00 0.00 62 1014.4
20260902210103 93 255 1.7 5.2 0.00 0.00 0.00 62 1014.6
20260902210049 93 304 1.7 5.2 0.00 0.00 0.00 62 1014.4
20260902205521 93 278 2.6 5.2 0.00 0.00 0.00 62 1014.4
20260902205016 93 287 1.7 4.3 0.00 0.00 0.00 60 1014.5
20260902204608 93 291 2.6 6.1 0.00 0.00 0.00 62 1014.8
20260902204535 93 281 2.6 6.1 0.00 0.00 0.00 61 1014.5
20260902204008 93 290 2.6 6.1 0.00 0.00 0.00 61 1014.5
20260902203508 93 290 1.7 7.0 0.00 0.00 0.00 63 1014.6
20260902203100 93 313 3.5 7.0 0.00 0.00 0.00 61 1014.7
20260902203024 93 240 3.5 7.0 0.00 0.00 0.00 61 1014.6
20260902202512 93 267 2.6 7.0 0.00 0.00 0.00 63 1014.6
20260902202014 93 283 2.6 5.2 0.00 0.00 0.00 62 1014.6
20260902201605 93 274 2.6 4.3 0.00 0.00 0.00 61 1014.8
20260902201504 93 298 2.6 4.3 0.00 0.00 0.00 61 1014.6
20260902201004 93 271 1.7 5.2 0.00 0.00 0.00 63 1014.7
20260902200505 93 252 1.7 5.2 0.00 0.00 0.00 63 1014.8
20260902200109 93 245 1.7 4.3 0.00 0.00 0.00 64 1014.9
20260902200013 93 278 1.7 4.3 0.00 0.00 0.00 63 1014.8
20260902195504 93 266 1.7 5.2 0.00 0.00 0.00 66 1014.9
20260902195004 93 263 1.7 5.2 0.00 0.00 0.00 63 1015.0
20260902194603 93 267 1.7 3.5 0.00 0.00 0.00 62 1015.1
20260902194515 93 298 1.7 3.5 0.00 0.00 0.00 60 1015.0
20260902194005 93 284 1.7 3.5 0.00 0.00 0.00 64 1015.0
20260902193508 93 289 1.7 4.3 0.00 0.00 0.00 65 1015.1
20260902193105 93 283 2.6 5.2 0.00 0.00 0.00 64 1015.3
20260902193019 93 274 2.6 5.2 0.00 0.00 0.00 61 1015.1
20260902192510 93 277 2.6 5.2 0.00 0.00 0.00 62 1015.2
20260902192011 93 280 2.6 6.1 0.00 0.00 0.00 64 1015.3
20260902191605 93 257 3.5 6.1 0.00 0.00 0.00 62 1015.3
20260902191529 93 264 3.5 6.1 0.00 0.00 0.00 61 1015.3
20260902191011 93 270 2.6 6.1 0.00 0.00 0.00 61 1015.3
20260902190513 93 258 2.6 6.1 0.00 0.00 0.00 63 1015.4
20260902190105 93 269 2.6 9.6 0.00 0.00 0.00 65 1015.7
20260902190006 93 233 2.6 9.6 0.00 0.00 0.00 64 1015.4
20260902185504 93 257 0.9 9.6 0.00 0.00 0.00 67 1015.5
20260902185004 92 297 4.3 7.8 0.00 0.00 0.00 61 1015.5
20260902184657 92 298 2.6 7.0 0.00 0.00 0.00 64 1015.7
20260902184518 92 287 2.6 7.0 0.00 0.00 0.00 64 1015.4
20260902184003 92 262 2.6 7.8 0.00 0.00 0.00 64 1015.5
20260902183504 92 285 3.5 7.8 0.00 0.00 0.00 62 1015.4
20260902183105 92 295 2.6 6.1 0.00 0.00 0.00 64 1015.7
20260902183018 92 293 2.6 6.1 0.00 0.00 0.00 66 1015.5
20260902182509 92 311 2.6 7.8 0.00 0.00 0.00 66 1015.5
20260902182007 92 298 3.5 7.8 0.00 0.00 0.00 64 1015.5
20260902181605 91 292 3.5 7.8 0.00 0.00 0.00 62 1015.6
20260902181520 91 297 4.3 7.8 0.00 0.00 0.00 64 1015.6
20260902181009 91 271 3.5 8.7 0.00 0.00 0.00 64 1015.7
20260902180511 91 292 4.3 8.7 0.00 0.00 0.00 63 1015.8
20260902180109 92 288 2.6 6.1 0.00 0.00 0.00 65 1015.8
20260902180024 92 277 2.6 6.1 0.00 0.00 0.00 66 1015.8
20260902175512 92 281 2.6 4.3 0.00 0.00 0.00 68 1015.7
20260902175015 92 240 1.7 5.2 0.00 0.00 0.00 68 1015.7
20260902174607 91 285 2.6 5.2 0.00 0.00 0.00 68 1015.7
20260902174507 91 280 2.6 5.2 0.00 0.00 0.00 68 1015.6
20260902174004 91 236 3.5 8.7 0.00 0.00 0.00 67 1015.7
20260902173505 91 293 2.6 8.7 0.00 0.00 0.00 68 1015.7
20260902173104 91 272 2.6 6.1 0.00 0.00 0.00 67 1015.9
20260902173010 90 247 2.6 6.1 0.00 0.00 0.00 68 1015.7
20260902172504 90 293 3.5 6.1 0.00 0.00 0.00 68 1015.7
20260902172006 90 272 3.5 6.1 0.00 0.00 0.00 68 1015.8
20260902171609 90 278 3.5 7.0 0.00 0.00 0.00 68 1015.9
20260902171521 90 246 3.5 7.0 0.00 0.00 0.00 67 1015.7
20260902171007 90 280 2.6 7.0 0.00 0.00 0.00 69 1015.8
20260902170508 90 257 3.5 5.2 0.00 0.00 0.00 69 1015.8
20260902170022 89 279 1.7 5.2 0.00 0.00 0.00 72 1015.9
20260902165513 89 256 2.6 5.2 0.00 0.00 0.00 71 1016.0
20260902165011 89 288 3.5 5.2 0.00 0.00 0.00 71 1016.0
20260902164603 89 281 1.7 4.3 0.00 0.00 0.00 72 1016.0
20260902164530 88 242 1.7 4.3 0.00 0.00 0.00 73 1016.0
20260902164015 88 283 2.6 4.3 0.00 0.00 0.00 71 1016.1
20260902163514 88 242 1.7 4.3 0.00 0.00 0.00 73 1016.2
20260902163100 87 281 1.7 5.2 0.00 0.00 0.00 72 1016.1
20260902163007 87 268 1.7 5.2 0.00 0.00 0.00 72 1016.2
20260902162504 87 290 3.5 6.1 0.00 0.00 0.00 70 1016.0
20260902162005 87 279 3.5 7.0 0.00 0.00 0.00 70 1016.2
20260902161611 87 287 3.5 7.8 0.00 0.00 0.00 70 1016.1
20260902161518 88 288 3.5 7.8 0.00 0.00 0.00 70 1016.2
20260902161013 87 300 3.5 7.8 0.00 0.00 0.00 71 1016.2
20260902160509 87 300 4.3 7.8 0.00 0.00 0.00 71 1016.2
20260902160059 87 233 3.5 6.1 0.00 0.00 0.00 72 1016.2
20260902160020 87 271 3.5 6.1 0.00 0.00 0.00 72 1016.2
20260902155509 86 265 2.6 6.1 0.00 0.00 0.00 73 1016.2
20260902155014 86 288 3.5 6.1 0.00 0.00 0.00 72 1016.2
20260902154602 86 290 3.5 7.0 0.00 0.00 0.00 73 1016.2
20260902154526 86 257 3.5 7.0 0.00 0.00 0.00 72 1016.2
20260902154011 86 283 3.5 7.0 0.00 0.00 0.00 71 1016.2
20260902153511 86 285 4.3 7.8 0.00 0.00 0.00 72 1016.2
20260902153114 86 278 3.5 7.8 0.00 0.00 0.00 73 1016.2
20260902153029 85 287 3.5 7.8 0.00 0.00 0.00 73 1016.2
20260902152515 85 288 3.5 7.0 0.00 0.00 0.00 73 1016.1
20260902152017 85 286 3.5 7.8 0.00 0.00 0.00 72 1016.0
20260902151603 85 297 2.6 7.8 0.00 0.00 0.00 73 1015.9
20260902151510 85 285 2.6 7.8 0.00 0.00 0.00 74 1016.0
20260902151004 84 231 3.5 7.8 0.00 0.00 0.00 75 1016.0
20260902150508 84 278 3.5 7.8 0.00 0.00 0.00 74 1016.0
20260902150015 84 259 3.5 7.8 0.00 0.00 0.00 76 1016.0
20260902145507 84 301 2.6 5.2 0.00 0.00 0.00 75 1016.0
20260902145008 84 269 2.6 5.2 0.00 0.00 0.00 75 1015.9
20260902144622 84 292 3.5 6.1 0.00 0.00 0.00 75 1015.9
20260902144531 84 289 3.5 6.1 0.00 0.00 0.00 76 1015.9
20260902144011 83 281 2.6 6.1 0.00 0.00 0.00 77 1015.9